Date,TemperatureHighF,TemperatureAvgF,TemperatureLowF,DewpointHighF,DewpointAvgF,DewpointLowF,HumidityHigh,HumidityAvg,HumidityLow,PressureMaxIn,PressureMinIn,WindSpeedMaxMPH,WindSpeedAvgMPH,GustSpeedMaxMPH,PrecipitationSumIn
2013-5-7,69.0,69.0,69.0,61.4,61.4,61.4,77,77,77,29.87,29.87,5,5,7,0.00
2013-5-8,75.2,69.7,67.7,61.6,59.3,56.6,79,70,60,29.87,29.77,14,2,20,0.00
2013-5-9,70.6,67.7,65.7,61.3,56.8,54.1,77,68,60,29.85,29.79,11,3,23,0.00
2013-5-10,73.3,67.7,61.5,58.2,56.0,52.3,87,67,52,29.86,29.80,17,3,19,0.01
2013-5-11,72.4,67.5,62.8,61.6,57.9,54.5,78,72,62,29.85,29.72,11,3,19,0.00
2013-5-16,72.4,68.7,64.7,64.3,59.3,54.5,85,73,57,29.88,29.81,13,3,20,0.00
2013-5-17,79.6,71.2,66.0,64.2,60.9,55.0,86,71,45,29.89,29.79,13,3,21,0.00
2013-5-18,76.6,72.3,67.3,66.3,62.6,59.7,80,72,59,29.96,29.86,7,1,12,0.00
2013-5-19,80.7,75.8,71.0,68.0,62.5,54.7,80,64,41,29.94,29.86,9,2,18,0.00
2013-5-20,81.2,76.3,71.3,69.8,64.5,59.8,81,67,55,29.89,29.83,7,1,12,0.00
2013-5-21,80.9,76.2,72.3,66.8,61.6,55.4,77,61,49,29.90,29.82,12,2,17,0.00
2013-5-22,82.7,74.8,70.1,68.4,61.6,50.6,84,65,33,29.87,29.68,14,4,26,0.00
2013-5-23,80.2,76.0,71.4,65.6,59.8,52.3,76,58,43,29.68,29.54,17,7,28,0.00
2013-5-24,77.2,72.1,69.1,62.0,55.2,52.2,64,56,47,29.87,29.67,10,4,18,0.00
2013-5-25,73.7,70.9,67.0,61.9,57.1,52.2,70,62,49,29.92,29.85,14,6,21,0.00
2013-5-26,79.7,73.0,67.0,63.8,56.4,48.8,67,57,34,29.92,29.81,10,3,22,0.00
2013-5-27,73.9,70.3,66.5,57.0,50.7,44.2,63,50,40,29.94,29.86,12,4,22,0.00
2013-5-28,72.7,69.4,64.4,62.9,58.8,52.3,78,69,52,29.92,29.73,9,2,17,0.00
2013-5-29,80.2,74.6,68.4,65.3,60.2,49.8,80,62,44,29.72,29.54,13,3,22,0.00
2013-5-30,80.2,74.4,71.1,66.1,60.6,55.1,79,63,47,29.70,29.62,10,3,20,0.00
2013-5-31,79.1,74.6,70.1,63.2,53.6,47.0,77,49,33,29.75,29.64,19,6,29,0.00